Hlavní strana
METAR-TAF:

METAR-TAF

Letiště :

Blue Ridge Airport

Martinsville, Virginie, Spojené státy americké

zeměpisná šířka: 36-38N, zeměpisná délka: 080-01W, výška: 287 m

Aktuální stav počasí

Zpráva byla vytvořena před 15 minutami, v 22:35 UTC
Západojihozápadní vítr 4 kt
Teplota 24°C
Vlhkost vzduchu 50%
Tlak 1011 hPa
Viditelnost: 16.1 km
Jasno

METAR: KMTV 072235Z AUTO 25004KT 10SM CLR 24/13 A2984 RMK AO2 T02370134

Čas: 18:50 (22:50 UTC)


TAF: chybějící

Stav a předpovědi počasí z více než 4 000 letišť (zprávy METAR a TAF).

Červené a žluté tečky na mapě představují dostupné meteorologické stanice.

Když kurzor umístíte na tečku, zobrazí se název stanice.

Pak kliknutím zobrazíte stav a předpověď počasí.

Chcete-li změnit mapu, kliknutím na zelené tlačítko se znaménkem +mapu přiblížíte, kliknutím na zelené tlačítko se znaménkem – mapu oddálíte a kliknutím na zelené šipky přejdete na sousední mapy.


METAR-TAF: